�N����,����,�~����,�C��,���x,�C��,����,���ϕ���,�ő�u�ԕ���,�ő厞����,���˗�,�I�_���x,�n�����x,�ő啗���N��,DTYPE
"22/04/28","00:10",0.0,11.9,82.0,1012.8,323.0,3.1,4.8,331.6,0.00,9.0,17.3,"00:03:12",1
"22/04/28","00:20",0.0,11.9,82.3,1012.8,306.2,3.6,6.4,326.1,0.00,9.0,17.1,"00:16:32",1
"22/04/28","00:30",0.0,12.0,81.9,1012.8,305.3,3.1,4.5,313.4,0.00,9.0,17.2,"00:28:50",1
"22/04/28","00:40",0.0,11.9,81.9,1012.8,307.6,3.2,4.8,312.7,0.00,9.0,17.1,"00:33:36",1
"22/04/28","00:50",0.0,11.8,81.9,1012.8,303.2,2.7,4.7,319.2,0.00,8.9,17.4,"00:40:32",1
"22/04/28","01:00",0.0,11.7,82.4,1012.3,306.0,3.2,5.0,315.6,0.00,8.8,17.1,"00:57:20",1
"22/04/28","01:10",0.0,11.5,82.9,1012.6,320.3,3.0,5.6,344.5,0.00,8.7,17.1,"01:02:08",1
"22/04/28","01:20",0.0,11.5,83.3,1012.1,317.2,2.7,4.2,338.6,0.00,8.8,17.0,"01:17:28",1
"22/04/28","01:30",0.0,11.4,83.4,1012.8,305.2,2.2,3.4,338.1,0.00,8.7,17.1,"01:20:40",1
"22/04/28","01:40",0.0,11.4,83.7,1012.6,317.0,2.6,4.8,332.5,0.00,8.8,17.0,"01:36:40",1
"22/04/28","01:50",0.0,11.3,84.2,1012.3,314.7,3.0,4.8,323.4,0.00,8.8,16.9,"01:46:32",1
"22/04/28","02:00",0.0,11.1,84.4,1012.1,323.6,2.2,3.6,327.9,0.00,8.6,16.8,"01:53:04",1
"22/04/28","02:10",0.0,11.2,84.6,1012.1,313.2,2.7,4.1,318.8,0.00,8.7,16.9,"02:04:24",1
"22/04/28","02:20",0.0,11.2,84.7,1011.6,316.3,3.4,5.5,325.3,0.00,8.8,16.8,"02:14:56",1
"22/04/28","02:30",0.0,11.2,84.7,1011.6,319.6,3.4,4.4,341.9,0.00,8.8,17.0,"02:20:56",1
"22/04/28","02:40",0.0,11.2,84.9,1011.6,319.9,3.6,4.8,318.5,0.00,8.8,17.0,"02:33:20",1
"22/04/28","02:50",0.0,11.2,84.9,1011.6,313.0,3.9,5.9,314.7,0.00,8.8,16.8,"02:45:36",1
"22/04/28","03:00",0.0,11.2,84.9,1011.6,320.4,4.1,5.7,321.2,0.00,8.8,16.8,"02:59:12",1
"22/04/28","03:10",0.0,11.1,84.9,1011.9,331.4,3.6,5.0,335.5,0.00,8.7,16.6,"03:03:12",1
"22/04/28","03:20",0.0,11.0,85.0,1012.1,330.9,4.0,5.9,337.4,0.00,8.6,16.7,"03:19:52",1
"22/04/28","03:30",0.0,11.0,85.3,1011.6,337.8,3.5,5.7,344.1,0.00,8.7,16.7,"03:25:36",1
"22/04/28","03:40",0.0,10.8,85.8,1011.9,336.3,3.5,6.2,326.8,0.00,8.6,16.6,"03:32:40",1
"22/04/28","03:50",0.0,10.8,86.4,1012.1,331.8,4.0,6.7,326.3,0.00,8.7,16.9,"03:47:28",1
"22/04/28","04:00",0.0,10.9,86.7,1012.1,329.0,4.9,7.1,313.3,0.00,8.8,16.8,"03:56:16",1
"22/04/28","04:10",0.0,10.8,86.8,1012.6,326.3,4.1,7.0,336.7,0.00,8.7,16.5,"04:01:28",1
"22/04/28","04:20",0.0,10.8,86.8,1011.6,309.3,3.4,5.6,336.2,0.00,8.7,16.4,"04:14:56",1
"22/04/28","04:30",0.0,10.9,86.8,1012.8,313.4,3.6,5.8,323.0,0.00,8.8,16.2,"04:28:32",1
"22/04/28","04:40",0.0,10.9,86.5,1012.6,311.7,3.0,4.7,304.1,0.00,8.8,16.6,"04:38:32",1
"22/04/28","04:50",0.0,11.0,86.3,1012.3,322.8,4.4,7.4,337.1,0.00,8.8,16.4,"04:42:56",1
"22/04/28","05:00",0.0,11.0,86.0,1012.6,324.5,5.0,7.2,318.5,0.00,8.8,16.4,"04:59:20",1
"22/04/28","05:10",0.0,11.2,85.5,1012.6,325.6,6.2,10.0,323.4,0.00,8.9,16.3,"05:04:56",1
"22/04/28","05:20",0.0,11.2,85.1,1012.6,327.2,5.7,8.0,309.9,0.00,8.8,16.2,"05:16:40",1
"22/04/28","05:30",0.0,11.2,84.8,1012.8,329.8,4.7,7.3,325.7,0.00,8.8,16.2,"05:24:16",1
"22/04/28","05:40",0.0,11.1,84.9,1012.8,333.4,3.7,5.1,346.9,0.00,8.7,16.2,"05:31:04",1
"22/04/28","05:50",0.0,11.1,85.0,1013.3,322.5,3.7,4.8,328.1,0.00,8.7,16.2,"05:48:08",1
"22/04/28","06:00",0.0,11.2,85.1,1013.0,319.3,4.1,6.3,313.8,0.00,8.8,16.2,"05:58:48",1
"22/04/28","06:10",0.0,11.4,85.3,1013.3,320.2,4.2,6.2,333.8,0.00,9.1,16.3,"06:02:48",1
"22/04/28","06:20",0.0,11.5,85.5,1013.5,325.2,4.0,5.1,329.1,0.00,9.2,16.1,"06:13:36",1
"22/04/28","06:30",0.0,11.5,85.7,1013.3,323.4,3.4,5.5,334.7,0.01,9.2,16.2,"06:22:00",1
"22/04/28","06:40",0.0,11.6,85.7,1013.5,322.5,2.8,5.4,337.2,0.01,9.3,16.1,"06:36:00",1
"22/04/28","06:50",0.0,11.8,85.5,1013.3,319.6,2.7,4.0,334.7,0.02,9.5,16.1,"06:40:02",1
"22/04/28","07:00",0.0,12.0,85.2,1013.8,312.9,2.7,4.0,322.3,0.02,9.6,16.3,"06:57:04",1
"22/04/28","07:10",0.0,12.1,85.0,1014.0,323.2,2.8,3.9,342.5,0.03,9.7,16.0,"07:02:58",1
"22/04/28","07:20",0.0,12.2,84.8,1013.8,323.1,3.0,4.4,339.4,0.04,9.8,16.1,"07:15:04",1
"22/04/28","07:30",0.0,12.3,84.5,1014.0,315.7,3.0,4.5,304.4,0.06,9.8,16.0,"07:28:24",1
"22/04/28","07:40",0.0,12.6,84.1,1014.0,300.8,2.2,3.9,321.9,0.08,10.0,16.0,"07:34:40",1
"22/04/28","07:50",0.0,12.9,83.6,1014.2,316.1,2.0,3.4,325.5,0.10,10.2,15.8,"07:41:04",1
"22/04/28","08:00",0.0,13.3,83.0,1014.2,327.8,2.3,4.0,339.5,0.12,10.5,16.0,"07:53:20",1
"22/04/28","08:10",0.0,13.5,81.8,1014.0,325.4,3.0,4.0,334.5,0.13,10.5,16.0,"08:07:20",1
"22/04/28","08:20",0.0,13.5,80.7,1014.2,312.9,3.0,4.7,333.4,0.12,10.3,15.8,"08:13:44",1
"22/04/28","08:30",0.0,13.8,80.0,1013.8,317.3,2.8,4.3,331.8,0.14,10.5,16.0,"08:28:48",1
"22/04/28","08:40",0.0,14.1,78.8,1014.2,306.5,2.6,3.9,325.3,0.17,10.5,16.1,"08:30:08",1
"22/04/28","08:50",0.0,14.8,77.3,1014.0,301.3,2.1,3.3,303.3,0.22,10.9,15.9,"08:49:20",1
"22/04/28","09:00",0.0,15.0,75.5,1014.0,325.1,3.1,5.4,322.6,0.25,10.7,15.9,"08:54:48",1
"22/04/28","09:10",0.0,15.6,74.4,1014.0,300.6,2.8,4.7,334.9,0.35,11.1,16.0,"09:00:16",1
"22/04/28","09:20",0.0,16.4,73.0,1013.8,290.7,2.2,3.7,252.4,0.40,11.6,16.1,"09:11:44",1
"22/04/28","09:30",0.0,17.2,70.1,1014.0,292.5,2.0,3.6,327.8,0.43,11.7,16.1,"09:21:52",1
"22/04/28","09:40",0.0,17.8,66.5,1013.5,277.6,1.8,4.5,241.5,0.45,11.5,16.0,"09:30:16",1
"22/04/28","09:50",0.0,18.5,64.8,1013.5,294.6,1.6,3.5,325.8,0.47,11.8,16.1,"09:40:08",1
"22/04/28","10:00",0.0,18.8,61.9,1013.0,252.8,1.3,2.8,251.6,0.49,11.4,16.2,"09:50:48",1
"22/04/28","10:10",0.0,19.3,59.8,1013.0,231.2,1.2,2.8,239.6,0.50,11.3,16.2,"10:00:08",1
"22/04/28","10:20",0.0,19.9,60.1,1012.8,258.8,1.1,2.6,317.1,0.52,12.0,16.1,"10:14:16",1
"22/04/28","10:30",0.0,20.7,56.2,1013.0,324.6,0.8,2.2,288.4,0.54,11.7,16.2,"10:29:36",1
"22/04/28","10:40",0.0,20.6,55.5,1012.6,170.8,1.3,3.5,124.5,0.55,11.4,16.4,"10:39:12",1
"22/04/28","10:50",0.0,20.6,53.8,1012.6,132.3,1.5,4.2,126.1,0.56,11.0,16.1,"10:42:24",1
"22/04/28","11:00",0.0,21.1,55.3,1012.3,134.6,1.2,2.5,39.4,0.58,11.8,16.6,"10:52:32",1
"22/04/28","11:10",0.0,21.8,52.6,1011.9,82.9,1.0,2.4,140.0,0.59,11.7,16.4,"11:00:02",1
"22/04/28","11:20",0.0,21.6,52.5,1011.9,129.7,1.6,3.4,127.9,0.60,11.5,16.4,"11:11:20",1
"22/04/28","11:30",0.0,21.7,51.2,1011.6,112.6,1.5,4.0,169.4,0.61,11.2,16.7,"11:29:20",1
"22/04/28","11:40",0.0,22.1,51.5,1011.4,136.2,1.7,3.1,124.9,0.61,11.7,16.8,"11:30:32",1
"22/04/28","11:50",0.0,22.4,51.0,1011.2,123.9,1.5,3.1,122.9,0.62,11.8,16.8,"11:44:40",1
"22/04/28","12:00",0.0,23.1,49.6,1010.9,117.8,0.8,2.6,135.8,0.62,12.0,16.7,"11:52:16",1
"22/04/28","12:10",0.0,23.7,47.7,1010.9,169.8,0.8,2.7,202.0,0.62,12.0,17.0,"12:02:48",1
"22/04/28","12:20",0.0,23.4,47.3,1010.4,126.4,1.8,3.2,128.7,0.63,11.6,16.9,"12:12:16",1
"22/04/28","12:30",0.0,23.3,46.1,1010.2,169.8,2.0,4.1,174.8,0.63,11.1,17.3,"12:20:16",1
"22/04/28","12:40",0.0,23.4,46.1,1010.2,204.6,2.2,4.5,212.8,0.62,11.2,17.2,"12:32:56",1
"22/04/28","12:50",0.0,23.6,43.3,1010.2,118.7,1.7,3.5,126.2,0.60,10.4,17.4,"12:44:16",1
"22/04/28","13:00",0.0,23.9,43.3,1010.0,126.9,1.7,3.6,124.1,0.62,10.7,17.2,"12:58:40",1
"22/04/28","13:10",0.0,24.1,44.4,1009.7,142.8,1.7,4.0,139.0,0.61,11.3,17.7,"13:07:12",1
"22/04/28","13:20",0.0,24.5,43.5,1009.7,116.1,1.6,5.2,125.9,0.61,11.3,17.6,"13:12:32",1
"22/04/28","13:30",0.0,24.9,42.0,1009.7,157.4,1.2,3.3,158.8,0.60,11.2,17.7,"13:26:32",1
"22/04/28","13:40",0.0,25.0,40.9,1009.5,166.6,1.5,3.6,148.4,0.59,10.8,17.8,"13:32:32",1
"22/04/28","13:50",0.0,24.7,42.7,1009.3,157.4,2.5,4.8,136.7,0.58,11.2,17.7,"13:48:48",1
"22/04/28","14:00",0.0,24.8,41.8,1009.0,156.7,2.0,4.1,202.0,0.57,11.0,17.8,"13:57:52",1
"22/04/28","14:10",0.0,24.9,43.6,1009.0,146.4,2.2,4.8,129.8,0.56,11.7,18.0,"14:08:16",1
"22/04/28","14:20",0.0,24.6,41.6,1008.8,114.9,2.0,4.3,148.7,0.54,10.7,18.0,"14:14:00",1
"22/04/28","14:30",0.0,25.1,42.1,1008.8,142.1,1.3,3.5,130.1,0.53,11.4,18.1,"14:22:32",1
"22/04/28","14:40",0.0,25.4,42.4,1008.3,150.8,1.6,2.8,174.1,0.51,11.8,18.2,"14:36:48",1
"22/04/28","14:50",0.0,25.2,39.1,1008.3,180.0,1.7,3.6,190.4,0.50,10.4,18.5,"14:46:48",1
"22/04/28","15:00",0.0,25.4,41.3,1008.3,201.7,1.8,3.7,193.0,0.47,11.4,18.2,"14:54:40",1
"22/04/28","15:10",0.0,25.5,40.7,1007.8,149.9,2.2,4.0,199.6,0.45,11.2,18.4,"15:02:48",1
"22/04/28","15:20",0.0,25.7,42.2,1007.8,150.8,1.6,4.1,143.0,0.43,11.9,18.5,"15:12:40",1
"22/04/28","15:30",0.0,25.7,38.8,1007.6,143.4,1.5,3.2,143.3,0.41,10.7,18.5,"15:22:56",1
"22/04/28","15:40",0.0,25.9,37.7,1007.8,157.5,1.2,3.2,217.5,0.39,10.4,18.7,"15:38:32",1
"22/04/28","15:50",0.0,25.7,38.7,1007.8,162.4,1.7,4.1,154.4,0.36,10.6,18.5,"15:41:12",1
"22/04/28","16:00",0.0,26.0,38.1,1007.4,214.4,1.3,3.1,246.7,0.34,10.7,18.8,"15:56:00",1
"22/04/28","16:10",0.0,25.7,36.6,1007.6,210.3,1.7,3.9,231.2,0.32,9.8,18.9,"16:08:32",1
"22/04/28","16:20",0.0,25.8,40.2,1007.6,175.8,1.3,3.1,131.1,0.29,11.3,18.7,"16:18:56",1
"22/04/28","16:30",0.0,25.5,38.4,1007.1,127.5,1.3,3.7,134.2,0.26,10.3,18.7,"16:25:28",1
"22/04/28","16:40",0.0,25.5,37.5,1006.9,126.6,1.5,3.5,122.2,0.24,10.0,19.1,"16:36:56",1
"22/04/28","16:50",0.0,25.2,36.9,1006.9,125.8,2.0,3.9,135.3,0.21,9.5,18.9,"16:49:52",1
"22/04/28","17:00",0.0,24.7,40.5,1007.1,129.1,2.6,5.7,127.7,0.19,10.4,19.2,"16:57:20",1
"22/04/28","17:10",0.0,24.5,45.9,1007.1,116.6,2.0,4.1,117.4,0.16,12.1,19.1,"17:06:32",1
"22/04/28","17:20",0.0,24.2,49.9,1007.1,112.1,2.0,5.9,124.5,0.13,13.1,19.0,"17:16:00",1
"22/04/28","17:30",0.0,23.8,53.3,1007.4,121.8,2.3,6.4,137.5,0.11,13.8,19.1,"17:28:16",1
"22/04/28","17:40",0.0,23.7,53.4,1007.6,103.0,1.3,2.9,115.3,0.09,13.7,19.0,"17:39:12",1
"22/04/28","17:50",0.0,23.5,55.5,1007.6,110.0,1.6,3.3,125.0,0.07,14.1,19.2,"17:49:20",1
"22/04/28","18:00",0.0,22.9,57.7,1007.8,104.3,1.7,3.6,91.7,0.05,14.2,19.1,"17:50:16",1
"22/04/28","18:10",0.0,22.5,59.3,1008.3,118.7,1.8,4.2,144.3,0.03,14.2,19.3,"18:06:40",1
"22/04/28","18:20",0.0,22.1,61.2,1008.3,114.1,1.6,4.4,138.0,0.02,14.3,19.1,"18:17:52",1
"22/04/28","18:30",0.0,21.9,62.2,1008.6,111.9,1.5,3.4,126.4,0.01,14.4,19.1,"18:20:56",1
"22/04/28","18:40",0.0,21.5,63.6,1008.8,106.4,1.6,3.1,150.7,0.00,14.4,19.4,"18:30:32",1
"22/04/28","18:50",0.0,21.1,65.1,1009.0,118.6,1.3,3.2,158.0,0.00,14.3,19.1,"18:42:24",1
"22/04/28","19:00",0.0,21.0,66.0,1009.0,107.3,1.3,2.9,122.7,0.00,14.5,19.2,"18:51:36",1
"22/04/28","19:10",0.0,20.6,66.6,1009.5,40.4,0.8,2.1,73.6,0.00,14.2,19.1,"19:01:52",1
"22/04/28","19:20",0.0,20.4,66.4,1009.7,8.5,0.8,1.6,359.4,0.00,14.0,19.0,"19:17:12",1
"22/04/28","19:30",0.0,20.3,67.0,1010.0,5.6,0.8,1.8,341.7,0.00,14.0,18.9,"19:29:04",1
"22/04/28","19:40",0.0,20.2,68.1,1010.0,356.2,1.1,1.9,338.5,0.00,14.2,19.0,"19:37:20",1
"22/04/28","19:50",0.0,19.9,69.4,1010.4,346.4,1.0,2.8,352.8,0.00,14.2,19.1,"19:48:16",1
"22/04/28","20:00",0.0,19.8,70.7,1010.9,354.1,1.5,2.5,355.6,0.00,14.4,19.1,"19:59:52",1
"22/04/28","20:10",0.0,19.4,72.1,1011.2,348.8,1.3,2.5,338.2,0.00,14.3,19.2,"20:01:20",1
"22/04/28","20:20",0.0,18.9,74.1,1011.4,342.8,1.0,2.1,344.1,0.00,14.2,19.1,"20:10:48",1
"22/04/28","20:30",0.0,18.7,76.4,1011.4,346.0,1.2,2.2,341.2,0.00,14.5,18.8,"20:27:36",1
"22/04/28","20:40",0.0,18.0,77.7,1011.4,321.7,1.1,1.9,319.3,0.00,14.1,18.8,"20:35:44",1
"22/04/28","20:50",0.0,17.9,79.4,1011.4,324.6,0.7,1.9,329.6,0.00,14.3,18.9,"20:48:16",1
"22/04/28","21:00",0.0,17.7,80.7,1011.6,315.9,1.3,2.4,328.0,0.00,14.4,19.2,"20:50:40",1
"22/04/28","21:10",0.0,17.6,81.6,1011.4,319.1,0.8,1.7,327.3,0.00,14.5,19.0,"21:08:32",1
"22/04/28","21:20",0.0,17.3,82.6,1011.2,313.6,1.7,2.2,327.6,0.00,14.4,18.7,"21:16:32",1
"22/04/28","21:30",0.0,17.0,83.5,1011.4,309.7,1.3,1.9,318.0,0.00,14.2,18.8,"21:28:24",1
"22/04/28","21:40",0.0,16.7,84.4,1011.6,305.0,1.5,2.4,306.8,0.00,14.1,18.8,"21:30:16",1
"22/04/28","21:50",0.0,16.5,85.2,1011.9,322.6,1.8,2.4,321.1,0.00,14.0,18.7,"21:42:24",1
"22/04/28","22:00",0.0,16.3,86.1,1011.4,280.0,0.8,1.8,316.0,0.00,14.0,18.7,"21:51:52",1
"22/04/28","22:10",0.0,16.5,86.6,1011.6,288.9,1.2,1.9,314.8,0.00,14.3,18.6,"22:09:20",1
"22/04/28","22:20",0.0,16.4,86.9,1011.6,301.6,1.2,1.9,320.6,0.00,14.3,18.6,"22:18:48",1
"22/04/28","22:30",0.0,16.2,87.2,1011.6,292.5,0.6,1.6,315.3,0.00,14.1,18.4,"22:22:40",1
"22/04/28","22:40",0.0,16.0,87.5,1011.4,294.0,1.0,1.4,313.9,0.00,14.0,18.6,"22:39:04",1
"22/04/28","22:50",0.0,16.1,88.0,1011.2,300.6,1.7,2.6,304.3,0.00,14.2,18.5,"22:48:40",1
"22/04/28","23:00",0.0,16.0,88.3,1011.4,309.8,1.3,2.1,322.1,0.00,14.1,18.4,"22:59:28",1
"22/04/28","23:10",0.0,15.8,88.5,1010.7,325.5,1.1,2.1,328.3,0.00,13.9,18.4,"23:06:32",1
"22/04/28","23:20",0.0,15.5,89.0,1010.9,319.5,1.7,2.6,322.9,0.00,13.7,18.4,"23:19:12",1
"22/04/28","23:30",0.0,15.4,89.4,1010.9,308.1,1.7,2.7,309.9,0.00,13.7,18.3,"23:20:16",1
"22/04/28","23:40",0.0,15.3,89.7,1011.2,304.8,1.5,1.9,304.0,0.00,13.7,18.4,"23:39:12",1
"22/04/28","23:50",0.0,15.3,90.0,1010.9,294.0,1.6,2.2,311.9,0.00,13.7,18.2,"23:47:20",1
"22/04/28","24:00",0.0,15.3,90.3,1011.2,308.7,1.3,2.4,313.8,0.00,13.8,18.3,"23:55:44",1
